Flag for U.S.A. Weather past 2 weeks in Glendale, California, U.S.A.

Now
66 °F

Clear.


Feels Like: 66 °F
Forecast: 63 / 91 °F
Wind: 3 mph from Southeast

Location: Burbank-Glendale-Pasadena Airport

Current Time: Jul 29, 2015 at 6:42:22 AM

Latest Report: Jul 29, 2015 at 5:53 AM


Visibility: 9 mi

Pressure: 29.88 "Hg

Humidity: 84%

Dew point: 61 °F

Location of GlendaleLocation

Historic Weather in Glendale — Graph

°F

Glendale temperature yesterday

Maximum temperature yesterday: 88 °F (at 2:53 PM)
Minimum temperature yesterday: 64 °F (at 5:01 AM)
Average temperature yesterday: 75 °F

Past Weeks' High & Low Weather Summary

 TemperatureHumidityPressure
High91 °F (Jul 25, 3:53 PM)90% (Jul 18, 9:53 PM)30.07 "Hg (Jul 18, 9:53 PM)
Low63 °F (Jul 17, 4:53 AM)21% (Jul 17, 3:53 PM)29.75 "Hg (Jul 17, 5:53 PM)
Average75 °F63%29.90 "Hg
* Reported Jul 14 4:53 AM — Jul 29 4:53 AM, Glendale, Weather by CustomWeather, © 2015

Note: Actual official high and low records may vary slightly from our data, if they occured in-between our weather recording intervals... More about our weather records

Advertising

Glendale weather history for previous 24 hours

 ConditionsComfort  
Time TempWeatherWind HumidityBarometerVisibility
4:53 AM
Wed, Jul 29
67 °FClear.No wind85%29.87 "Hg9 mi
3:53 AM67 °FClear.3 mph81%29.87 "Hg10 mi
2:53 AM68 °FClear.No wind82%29.86 "Hg9 mi
1:53 AM68 °FClear.No wind82%29.87 "Hg10 mi
12:53 AM68 °FClear.3 mph82%29.89 "Hg10 mi
11:53 PM
Tue, Jul 28
69 °FClear.7 mph79%29.88 "Hg10 mi
10:53 PM71 °FClear.8 mph76%29.87 "Hg10 mi
9:53 PM73 °FClear.7 mph69%29.85 "Hg10 mi
8:53 PM75 °FSunny.6 mph58%29.83 "Hg10 mi
7:53 PM77 °FSunny.7 mph58%29.81 "Hg10 mi
6:53 PM83 °FSunny.8 mph44%29.79 "Hg10 mi
5:53 PM85 °FSunny.8 mph42%29.79 "Hg10 mi
4:53 PM87 °FSunny.9 mph39%29.79 "Hg10 mi
3:53 PM88 °FSunny.10 mph40%29.80 "Hg10 mi
2:53 PM88 °FSunny.9 mph40%29.81 "Hg10 mi
1:53 PM86 °FSunny.6 mph42%29.82 "Hg10 mi
12:53 PM86 °FSunny.5 mph39%29.84 "Hg10 mi
11:53 AM83 °FSunny.8 mph46%29.85 "Hg10 mi
10:53 AM79 °FSunny.5 mph52%29.86 "Hg10 mi
9:53 AM75 °FSunny.3 mph62%29.88 "Hg8 mi
9:00 AM70 °FSunny.No wind73%29.93 "Hg5 mi
7:53 AM67 °FLow clouds.No wind81%29.88 "Hg7 mi
6:53 AM66 °FLow clouds.No wind84%29.87 "Hg6 mi
Weather by CustomWeather, © 2015

See weather overviewHow to use our weather pages